Location: Gradaro
(45.0833°N, 10.8833°E)
Time: 17:57:58
(UTC+00:00)

USA 306 - Visible Passes

Search period start: 16 April 2021 00:00
Search period end: 26 April 2021 00:00
Orbit: 564 x 577 km, 54.0° (Epoch: 16 April)

Date Brightness Start Highest point End Pass type
(mag) Time Alt. Az. Time Alt. Az. Time Alt. Az.
16 Apr 4.2 01:12:53 38° NNE 01:12:53 38° NNE 01:15:56 10° NE visible
16 Apr 4.8 02:48:57 11° WNW 02:52:25 25° N 02:56:02 10° NE visible
17 Apr 4.2 01:13:54 37° N 01:13:54 37° N 01:17:18 10° NE visible
17 Apr 4.9 02:50:28 10° WNW 02:54:02 24° N 02:57:37 10° NE visible
18 Apr 4.4 01:14:52 33° NNW 01:14:52 33° NNW 01:18:41 10° NE visible
18 Apr 4.9 02:52:03 10° NW 02:55:39 25° N 02:59:15 10° ENE visible
18 Apr 5.8 23:39:45 12° NE 23:39:45 12° NE 23:40:10 10° NE visible
19 Apr 4.6 01:15:48 28° NNW 01:16:19 28° NNW 01:20:06 10° NE visible
19 Apr 4.9 02:53:35 10° NW 02:57:15 26° N 03:00:55 10° ENE visible
19 Apr 5.6 23:40:40 15° NE 23:40:40 15° NE 23:41:31 10° NE visible
20 Apr 4.8 01:16:43 23° NW 01:17:54 26° N 01:21:33 10° NE visible
20 Apr 4.8 02:55:02 10° NW 02:58:50 29° NNE 03:02:38 10° ENE visible
20 Apr 5.4 23:41:33 19° NE 23:41:33 19° NE 23:42:52 10° NE visible
21 Apr 5.0 01:17:37 18° NW 01:19:30 25° N 01:23:05 10° NE visible
21 Apr 4.6 02:56:26 10° NW 03:00:23 34° NNE 03:04:19 10° E visible
21 Apr 5.2 23:42:23 22° NNE 23:42:23 22° NNE 23:44:13 10° NE visible
22 Apr 5.0 01:18:27 14° NW 01:21:05 25° N 01:24:40 10° ENE visible
22 Apr 4.2 02:57:48 10° NW 03:01:54 41° NNE 03:05:59 10° E visible
22 Apr 5.1 23:43:10 25° NNE 23:43:10 25° NNE 23:45:36 10° NE visible
23 Apr 5.0 01:19:13 11° NW 01:22:41 25° N 01:26:18 10° ENE visible
23 Apr 3.8 02:59:08 10° NW 03:03:22 52° NNE 03:07:34 10° ESE visible
23 Apr 5.0 23:43:51 26° N 23:43:51 26° N 23:47:01 10° NE visible
24 Apr 4.9 01:20:31 10° NW 01:24:16 28° NNE 01:27:59 10° ENE visible
24 Apr 3.2 03:00:28 10° NW 03:04:47 70° NNE 03:09:04 10° ESE visible
24 Apr 5.7 22:08:17 10° NE 22:08:17 10° NE 22:08:22 10° NE visible
24 Apr 5.0 23:44:18 24° NNW 23:44:53 25° N 23:48:30 10° NE visible
25 Apr 4.7 01:21:55 10° NW 01:25:48 31° NNE 01:29:40 10° E visible
25 Apr 2.8 03:01:49 10° NW 03:06:09 84° SW 03:10:26 10° SE visible
25 Apr 3.2 20:21:23 10° SW 20:24:40 45° S 20:24:40 45° S visible
25 Apr 5.0 22:08:01 21° NE 22:08:01 21° NE 22:09:42 10° NE visible
25 Apr 5.1 23:43:54 15° NW 23:46:28 24° N 23:50:02 10° NE visible
